[Iaude] MPEC H06: 2024 GL6 [a=1.70,e=0.47,i=25.0,H=22.3]

mpec at cfa.harvard.edu mpec at cfa.harvard.edu
Tue Apr 16 09:58:15 EDT 2024


M.P.E.C. 2024-H06                                Issued 2024 April 16, 13:56 UT

     The Minor Planet Electronic Circulars contain information on unusual
         minor planets, routine data on comets and natural satellites,
         and occasional editorial announcements.  They are published
    on behalf of Division F of the International Astronomical Union by the
          Minor Planet Center, Smithsonian Astrophysical Observatory,
                          Cambridge, MA 02138, U.S.A.
			  
             Prepared using the Tamkin Foundation Computer Network

                              MPC at CFA.HARVARD.EDU
            URL https://www.minorplanetcenter.net/    ISSN 1523-6714

                                    2024 GL6                                    


Observations:
     K24G06L*1C2024 04 14.39561216 12 33.664+42 25 06.42         20.75GVEH006G96
     K24G06L 1C2024 04 14.40101216 12 30.395+42 24 24.48         20.35GVEH006G96
     K24G06L 1C2024 04 14.40678516 12 26.910+42 23 40.34         20.52GVEH006G96
     K24G06L 1C2024 04 14.41287316 12 23.195+42 22 53.44         20.43GVEH006G96
     K24G06L  C2024 04 14.42812216 12 13.718+42 20 53.66         20.3 GVEH006H01
     K24G06L  C2024 04 14.43265416 12 10.978+42 20 18.48         20.4 GVEH006H01
     K24G06L  C2024 04 14.44322316 12 04.568+42 18 56.21         20.5 GVEH006H01
     K24G06L  C2024 04 14.45120316 11 59.743+42 17 53.97         20.6 GVEH006H01
     K24G06L KC2024 04 15.26230 16 04 16.781+40 30 19.55         20.8 GVEH006H36
     K24G06L KC2024 04 15.27422 16 04 09.809+40 28 43.28         21.0 GVEH006H36
     K24G06L KC2024 04 15.28185216 04 04.89 +40 27 43.0                VEH006H21
     K24G06L KC2024 04 15.28744516 04 01.59 +40 26 57.8          20.9 GVEH006H21
     K24G06L KC2024 04 15.29303616 03 58.33 +40 26 12.7          21.1 GVEH006H21
     K24G06L KC2024 04 15.29309416 03 59.699+40 26 11.98         20.81GVEH006I52
     K24G06L KC2024 04 15.29600316 03 58.014+40 25 48.90         20.84GVEH006I52
     K24G06L KC2024 04 15.29891816 03 56.293+40 25 25.82         20.47GVEH006I52
     K24G06L KC2024 04 15.30182116 03 54.572+40 25 02.21         20.84GVEH006I52
     K24G06L 1C2024 04 15.35508116 03 23.245+40 17 50.75         21.69GVEH006G96
     K24G06L 1C2024 04 15.36031716 03 20.236+40 17 09.31         20.65GVEH006G96
     K24G06L 1C2024 04 15.36557716 03 17.165+40 16 26.62         20.71GVEH006G96
     K24G06L 1C2024 04 15.37081316 03 14.105+40 15 44.35         20.82GVEH006G96
     K24G06L KC2024 04 15.93900215 57 56.96 +38 56 45.0          19.9 GVEH006L01
     K24G06L KC2024 04 15.94097915 57 55.80 +38 56 28.4          19.7 GVEH006L01
     K24G06L pC2024 04 15.94295415 57 54.65 +38 56 11.1          20.0 GVEH006L01
     K24G06L KC2024 04 15.94492915 57 53.62 +38 55 55.4          20.0 GVEH006L01
     K24G06L KC2024 04 15.94691015 57 52.46 +38 55 39.3          20.0 GVEH006L01
     K24G06L 1C2024 04 15.96911 15 57 39.71 +38 52 28.6          20.1 VXEH006033
     K24G06L 1C2024 04 15.96998 15 57 39.18 +38 52 21.4          20.0 VXEH006033
     K24G06L 1C2024 04 15.97086 15 57 38.62 +38 52 14.3          20.3 VXEH006033
     K24G06L 1C2024 04 15.97173 15 57 38.16 +38 52 07.2          20.2 VXEH006033
     K24G06L 1C2024 04 16.08139 15 56 35.72 +38 36 41.3          19.8 VXEH006033
     K24G06L 1C2024 04 16.08215 15 56 35.29 +38 36 34.9          19.7 VXEH006033
     K24G06L 1C2024 04 16.08290 15 56 34.81 +38 36 28.5          19.9 VXEH006033
     K24G06L 1C2024 04 16.08365 15 56 34.38 +38 36 22.1          20.0 VXEH006033
     K24G06L 1C2024 04 16.08460 15 56 33.85 +38 36 13.9          20.1 VXEH006033
     K24G06L KC2024 04 16.28064815 54 48.940+38 08 29.40         20.31GVEH006I52
     K24G06L KC2024 04 16.28354915 54 47.260+38 08 05.00         20.59GVEH006I52
     K24G06L KC2024 04 16.46718215 53 02.958+37 41 46.90         20.06GVEH006I52
     K24G06L KC2024 04 16.47058615 53 00.992+37 41 17.63         20.55GVEH006I52
     K24G06L KC2024 04 16.47399915 52 59.077+37 40 47.75         20.40GVEH006I52
     K24G06L KC2024 04 16.47742015 52 57.133+37 40 17.80         20.46GVEH006I52

Observer details:
033 Karl Schwarzschild Observatory, Tautenburg.  Observers S. Melnikov, C.
    Hogner, F. Ludwig, M. Hartmann, B. Stecklum.  Measurer B. Stecklum.
    1.34-m f/3 Schmidt + CCD.
G96 Mt. Lemmon Survey.  Observers K. W. Wierzchos, G. J. Leonard.  Measurers
    T. Beuden, V. F. Carvajal, D. Fay, J. B. Fazekas, D. C. Fuls, A. R. Gibbs,
    A. D. Grauer, H. Groeller, J. K. Hogan, R. A. Kowalski, S. M. Larson, G.
    J. Leonard, D. Rankin, R. L. Seaman, F. C. Shelly, K. W. Wierzchos.  1.5-m
    reflector + 10K CCD.
H01 Magdalena Ridge Observatory, Socorro.  Observers W. H. Ryan, E. V. Ryan.
    Measurer W. H. Ryan.  2.4-m f/8.9 Ritchey-Chretien + CCD.
H21 Astronomical Research Observatory, Westfield.  Observer R. Holmes.
    Measurers T. Linder, R. Holmes, L. Horn.  0.76-m f/3.0 astrograph + CCD.
H36 Sandlot Observatory, Scranton.  Observer G. Hug.  0.56-m f/4.8 .56 meter
    Reflector + CMO.
I52 Steward Observatory, Mt. Lemmon Station.  Observers J. B. Fazekas, T.
    Beuden.  Measurers T. Beuden, V. F. Carvajal, D. Fay, J. B. Fazekas, D. C.
    Fuls, A. R. Gibbs, A. D. Grauer, H. Groeller, J. K. Hogan, R. A. Kowalski,
    S. M. Larson, G. J. Leonard, D. Rankin, R. L. Seaman, F. C. Shelly, K. W.
    Wierzchos.  1.0-m prime focus + CCD.
L01 Visnjan Observatory, Tican.  Observer K. Korlevic.  1.0-m f/2.9 reflector
    + CCD.

Orbital elements:
2024 GL6                                                 Earth MOID = 0.1666 AU
Epoch 2024 Mar. 31.0 TT = JDT 2460400.5                 MPC                     
M  16.59106              (2000.0)            P               Q                  
n   0.44649828     Peri.   97.76184     -0.72183873     -0.62669232             
a   1.6953376      Node    44.07425     +0.33952747     -0.69037162             
e   0.4661935      Incl.   24.96718     +0.60305053     -0.36144676             
P   2.21           H   22.35          G   0.15           U   9                  
Residuals in seconds of arc
240414 G96  0.0   0.0     240415 I52  0.4+  0.1-    240415 033  0.9-  0.1-
240414 G96  0.0   0.3-    240415 I52  0.2+  0.3+    240415 033  0.5-  0.1+
240414 G96  0.2+  0.1+    240415 I52  0.1-  0.0     240416 033  0.2+  0.0
240414 G96  0.0   0.2+    240415 G96 (0.9-  1.3-)   240416 033  0.2+  0.0
240414 H01  0.0   0.0     240415 G96  0.1-  0.2-    240416 033  0.4-  0.0
240414 H01  0.1+  0.0     240415 G96  0.2+  0.1-    240416 033  0.4-  0.0
240414 H01  0.1-  0.0     240415 G96  0.4+  0.2+    240416 033  0.3-  0.1-
240414 H01  0.0   0.1-    240415 L01  0.1+  0.5-    240416 I52  0.5+  0.1+
240415 H36  0.1+  0.4+    240415 L01  0.2-  0.7-    240416 I52  0.0   0.2+
240415 H36  0.1+  0.0     240415 L01  0.5-  1.5-    240416 I52  0.6+  0.4-
240415 H21  0.2-  0.1+    240415 L01  0.6+  0.7-    240416 I52  0.1+  0.0
240415 H21  0.3-  0.1+    240415 L01  0.2+  0.3-    240416 I52  0.3+  0.0
240415 H21  0.1-  0.2+    240415 033  0.2+  0.4-    240416 I52  0.1+  0.1-
240415 I52  0.2+  0.4-    240415 033  0.2-  0.3-

Ephemeris:
2024 GL6                 a,e,i = 1.70, 0.47, 25                  q = 0.9050
Date    TT    R. A. (2000) Decl.     Delta      r    Elong.  Phase     V
2024 03 17    20 41 51.1 +61 54 03   0.3274  0.9483    72.3    88.5    22.9
...
2024 04 01    18 34 11.7 +59 28 22   0.2381  1.0154    87.1    79.4    22.0
...
2024 04 09    17 08 17.8 +51 58 39   0.1961  1.0600   102.0    67.5    21.3
...
2024 04 15    16 06 44.5 +41 05 47   0.1743  1.0962   118.1    53.8    20.7
2024 04 16    15 57 21.5 +38 48 29   0.1720  1.1025   121.2    51.1    20.6
2024 04 17    15 48 17.3 +36 24 05   0.1701  1.1088   124.4    48.4    20.5
...
2024 04 23    15 01 02.4 +20 25 01   0.1699  1.1474   144.1    30.9    20.1
...
2024 05 01    14 16 31.3 +00 32 05   0.1999  1.2008   163.9    13.5    20.0
...
2024 05 16    13 34 25.2 -20 15 29   0.3212  1.3042   152.4    21.1    21.5

A. U. Tomatic                (C) Copyright 2024 MPC           M.P.E.C. 2024-H06





More information about the Iaude mailing list